Change the Weather History Date:

Thursday, June 20, 2013

  Actual Average Record
Temperature  
Mean Temperature 86 °F -  
Max Temperature 102 °F 96 °F 111 °F (1951)
Min Temperature 71 °F 68 °F 52 °F (1973)
Cooling Degree Days 20    
Growing Degree Days 36 (Base 50)    
Moisture  
Dew Point 59 °F    
Average Humidity 46    
Maximum Humidity 81    
Minimum Humidity 17    
Precipitation  
Precipitation 0.00 in - - ()
Sea Level Pressure  
Sea Level Pressure 29.84 in    
Wind  
Wind Speed 16 mph (South)    
Max Wind Speed 25 mph    
Max Gust Speed 36 mph    
Visibility 10 miles    
Events Rain , Thunderstorm    
Averages and records for this station are not official NWS values.
T = Trace of Precipitation, MM = Missing Value Source: NWS Daily Summary

Daily Weather History Graph

Daily Weather History Graph

Search for Another Location

Airport or City:

Trip Planner

Search our weather history database for the weather conditions in past years. The results will help you decide how hot, cold, wet, or windy it might be!

Date:

Astronomy

Jun. 20, 2013 Rise Set
Actual Time 6:47 AM CDT 9:01 PM CDT
Civil Twilight 6:19 AM CDT 9:29 PM CDT
Nautical Twilight 5:45 AM CDT 10:03 PM CDT
Astronomical Twilight 5:07 AM CDT 10:41 PM CDT
Moon 6:12 PM CDT (6/20) 4:08 AM CDT (6/20)
Length of Visible Light 15h 10m
Length of Day
14h 13m
Waxing Gibbous, 89% of the Moon is Illuminated
Jun 20
Waxing Gibbous
Jun 23
Full
Jun 29
Last Quarter
Jul 8
New
Jul 15
First Quarter

Hourly Weather History & Observations

Time (CDT) Temp. Heat Index Dew Point Humidity Pressure Visibility Wind Dir Wind Speed Gust Speed Precip Events Conditions
12:53 AM 81.0 °F 82.5 °F 64.0 °F 56% 29.76 in 10.0 mi SE 24.2 mph 35.7 mph N/A   Clear
1:53 AM 79.0 °F - 64.0 °F 60% 29.79 in 10.0 mi SSE 15.0 mph 21.9 mph N/A   Clear
2:53 AM 78.1 °F - 64.9 °F 64% 29.83 in 10.0 mi West 12.7 mph - N/A   Clear
3:16 AM 78.8 °F - 64.4 °F 61% 29.98 in 10.0 mi SW 15.0 mph - N/A Thunderstorm Clear
3:31 AM 80.6 °F 81.8 °F 62.6 °F 54% 29.96 in 10.0 mi SW 13.8 mph - N/A   Partly Cloudy
3:53 AM 79.0 °F - 63.0 °F 58% 29.76 in 10.0 mi South 17.3 mph - N/A   Scattered Clouds
4:53 AM 79.0 °F - 62.1 °F 56% 29.73 in 10.0 mi SSE 18.4 mph 25.3 mph N/A   Partly Cloudy
5:53 AM 78.1 °F - 61.0 °F 56% 29.73 in 10.0 mi ESE 11.5 mph - N/A   Clear
6:53 AM 77.0 °F - 60.1 °F 56% 29.76 in 10.0 mi SE 6.9 mph - N/A   Clear
7:53 AM 75.9 °F - 60.1 °F 58% 29.78 in 10.0 mi SSE 5.8 mph - N/A   Clear
8:53 AM 78.1 °F - 61.0 °F 56% 29.81 in 10.0 mi SSE 16.1 mph 21.9 mph N/A   Clear
9:53 AM 80.1 °F 81.2 °F 62.1 °F 54% 29.82 in 10.0 mi SSE 17.3 mph - N/A   Clear
10:53 AM 84.0 °F 84.5 °F 62.1 °F 47% 29.82 in 10.0 mi SSE 16.1 mph - N/A   Clear
11:53 AM 90.0 °F 90.3 °F 62.1 °F 39% 29.81 in 10.0 mi SSE 15.0 mph 21.9 mph N/A   Clear
12:53 PM 93.0 °F 92.3 °F 59.0 °F 32% 29.80 in 10.0 mi SSE 12.7 mph 25.3 mph N/A   Clear
1:53 PM 96.1 °F 94.8 °F 57.0 °F 27% 29.78 in 10.0 mi SSE 17.3 mph 25.3 mph N/A   Clear
2:53 PM 99.0 °F 96.9 °F 54.0 °F 22% 29.76 in 10.0 mi SE 17.3 mph 29.9 mph N/A   Clear
3:53 PM 100.9 °F - 48.0 °F 17% 29.73 in 10.0 mi SE 16.1 mph 28.8 mph N/A   Clear
4:53 PM 97.0 °F - 51.1 °F 21% 29.71 in 10.0 mi SSE 23.0 mph 29.9 mph N/A   Clear
5:53 PM 98.1 °F - 48.0 °F 18% 29.70 in 10.0 mi SE 21.9 mph 32.2 mph N/A   Clear
6:53 PM 93.9 °F - 51.1 °F 23% 29.71 in 10.0 mi SSE 23.0 mph 29.9 mph N/A   Clear
7:53 PM 91.0 °F - 52.0 °F 26% 29.76 in 10.0 mi SE 17.3 mph 23.0 mph N/A   Clear
8:53 PM 89.1 °F 87.3 °F 55.9 °F 32% 29.80 in 10.0 mi SE 17.3 mph 26.5 mph N/A   Clear
9:53 PM 86.0 °F 85.7 °F 60.1 °F 41% 29.85 in 10.0 mi SSE 11.5 mph 20.7 mph N/A   Clear
10:25 PM 86.0 °F 86.1 °F 60.8 °F 43% 30.04 in 10.0 mi South 13.8 mph - N/A Thunderstorm Thunderstorm
10:40 PM 84.2 °F 85.0 °F 62.6 °F 48% 30.05 in 10.0 mi South 12.7 mph - N/A   Clear
10:53 PM 84.9 °F 85.4 °F 62.1 °F 46% 29.93 in 10.0 mi SW 11.5 mph - N/A   Clear
11:02 PM 78.8 °F - 57.2 °F 47% 30.10 in 10.0 mi WSW 19.6 mph 35.7 mph N/A Thunderstorm Mostly Cloudy
11:11 PM 75.2 °F - 57.2 °F 53% 30.09 in 10.0 mi WSW 25.3 mph 29.9 mph N/A Thunderstorm Mostly Cloudy
11:53 PM 71.1 °F - 64.9 °F 81% 29.91 in 10.0 mi SW 6.9 mph - 0.00 in Rain , Thunderstorm Light Rain
11:59 PM 71.6 °F - 64.4 °F 78% 30.03 in 10.0 mi West 4.6 mph - 0.00 in Rain , Thunderstorm Light Thunderstorms and Rain